Home   Weather   Reykjavik   Past weeks
Flag for Iceland

Past Weather in Reykjavik, Iceland — Yesterday and Last 2 Weeks

Now
36 °F

Passing clouds.


Feels Like: 25 °F
Forecast: 40 / 35 °F
Wind: 18 mph from South

Location: Reykjavik Airport

Current Time: Mar 19, 2019 at 4:33:05 am

Latest Report: Mar 19, 2019 at 4:00 am


Visibility: N/A

Pressure: 29.09 "Hg

Humidity: 87%

Dew Point: 32 °F

Location of ReykjavikLocation

Past Weather in Reykjavik — Graph

°F

Reykjavik Temperature Yesterday

Maximum temperature yesterday: 45 °F (at 3:00 pm)
Minimum temperature yesterday: 37 °F (at 12:00 am)
Average temperature yesterday: 42 °F

High & Low Weather Summary for the Past Weeks

 TemperatureHumidityPressure
High45 °F (Mar 18, 3:00 pm)93% (Mar 6, 5:00 am)29.65 "Hg (Mar 6, 5:00 am)
Low21 °F (Mar 6, 4:00 am)29% (Mar 12, 1:00 am)28.74 "Hg (Mar 11, 10:00 pm)
Average34 °F68%29.33 "Hg
* Reported Mar 4 3:00 am — Mar 19 3:00 am, Reykjavik. Weather by CustomWeather, © 2019

Note: Actual official high and low records may vary slightly from our data, if they occured in-between our weather recording intervals... More about our weather records

Advertising

Reykjavik Weather History for the Previous 24 Hours

Scroll right to see more
 ConditionsComfort  
Time TempWeatherWind HumidityBarometerVisibility
3:00 am
Tue, Mar 19
39 °FLight rain. Overcast.23 mph70%29.12 "HgN/A
2:02 am37 °FPartly cloudy.16 mph81%29.15 "HgN/A
1:00 am39 °FLight rain. Mostly cloudy.7 mph81%29.15 "HgN/A
11:00 pm
Mon, Mar 18
39 °FLight rain. Partly cloudy.7 mph93%29.18 "HgN/A
10:00 pm41 °FLight rain. Mostly cloudy.16 mph93%29.21 "HgN/A
9:20 pm43 °FDrizzle. Mostly cloudy.23 mph93%29.21 "Hg2 mi
9:00 pm45 °FDrizzle. Mostly cloudy.25 mph87%29.21 "Hg5 mi
8:00 pm45 °FDrizzle. Mostly cloudy.23 mph87%29.24 "Hg4 mi
7:00 pm45 °FLight rain. Fog.25 mph87%29.24 "Hg3 mi
6:00 pm45 °FLight rain. Fog.22 mph87%29.27 "Hg3 mi
5:00 pm45 °FRain. Mostly cloudy.23 mph81%29.30 "Hg4 mi
4:00 pm45 °FLight rain. Fog.20 mph87%29.30 "Hg3 mi
3:37 pm45 °FLight rain. Fog.22 mph81%29.30 "Hg2 mi
3:00 pm45 °FRain. More clouds than sun.21 mph81%29.33 "HgN/A
2:00 pm43 °FLight rain. Mostly cloudy.18 mph81%29.36 "HgN/A
1:00 pm43 °FLight rain. Mostly cloudy.20 mph81%29.39 "HgN/A
12:00 pm43 °FLight rain. Mostly cloudy.16 mph81%29.42 "HgN/A
11:00 am43 °FMostly cloudy.17 mph76%29.45 "HgN/A
10:00 am41 °FCloudy.14 mph81%29.45 "HgN/A
9:00 am41 °FScattered showers. Broken clouds.13 mph81%29.47 "HgN/A
8:00 am41 °FCloudy.13 mph81%29.47 "HgN/A
7:00 am41 °FDrizzle. Mostly cloudy.12 mph81%29.47 "HgN/A
6:00 am41 °FMostly cloudy.12 mph76%29.45 "HgN/A
5:00 am39 °FPartly cloudy.9 mph81%29.47 "HgN/A
4:00 am39 °FScattered showers. Partly cloudy.9 mph81%29.47 "HgN/A
Weather by CustomWeather, © 2019

See weather overview